www.pogodaiklimat.ru
Время
(UTC), дата
22 29.05
23 29.05
00 30.05
02 30.05
01 30.05
03 30.05
04 30.05
05 30.05
06 30.05
08 30.05
07 30.05
09 30.05
10 30.05
11 30.05
12 30.05
14 30.05
13 30.05
15 30.05
16 30.05
17 30.05
18 30.05
20 30.05
19 30.05
21 30.05
22 30.05
23 30.05
00 31.05
02 31.05
01 31.05
03 31.05
04 31.05
05 31.05
06 31.05
08 31.05
07 31.05
09 31.05
10 31.05
11 31.05
12 31.05
14 31.05
13 31.05
15 31.05
16 31.05
17 31.05
18 31.05
20 31.05
19 31.05
21 31.05
22 31.05
23 31.05
00 1.06
02 1.06
01 1.06
03 1.06
04 1.06
05 1.06
06 1.06
08 1.06
07 1.06
09 1.06
10 1.06
11 1.06
12 1.06
14 1.06
13 1.06
15 1.06
16 1.06
17 1.06
18 1.06
20 1.06
19 1.06
21 1.06
22 1.06
23 1.06
00 2.06
02 2.06
01 2.06
03 2.06
04 2.06
05 2.06
06 2.06
08 2.06
07 2.06
09 2.06
10 2.06
11 2.06
12 2.06
14 2.06
13 2.06
15 2.06
16 2.06
17 2.06
18 2.06
20 2.06
19 2.06
21 2.06
22 2.06
23 2.06
00 3.06
02 3.06
01 3.06
03 3.06
04 3.06
05 3.06
06 3.06
08 3.06
07 3.06
09 3.06
10 3.06
11 3.06
12 3.06
14 3.06
13 3.06
15 3.06
16 3.06
17 3.06
18 3.06
20 3.06
19 3.06
21 3.06
22 3.06
23 3.06
00 4.06
02 4.06
01 4.06
03 4.06
04 4.06
05 4.06
06 4.06
08 4.06
07 4.06
09 4.06
10 4.06
11 4.06
12 4.06
14 4.06
13 4.06
15 4.06
16 4.06
17 4.06
18 4.06
20 4.06
19 4.06
21 4.06
22 4.06
23 4.06
00 5.06
02 5.06
01 5.06
03 5.06
04 5.06
05 5.06
06 5.06
08 5.06
07 5.06
09 5.06
10 5.06
11 5.06
12 5.06
14 5.06
13 5.06
15 5.06
16 5.06
17 5.06
18 5.06
20 5.06
19 5.06
21 5.06
Ветер
(напр.,м/с)
Видим. Явления Облачность Т
(С)
Тd
(С)
f
(%)
Тe
(С)
Тes
(С)
Комфортность P
(гПа)
Po
(гПа)
Тmin
(С)
Tmax
(С)
R
(мм)
R24
(мм)
S
(см)
СВ 1-1
{1}
50 км 1/0
[Ac trans Ci fib]
+11.4 +5.7 68 +11 +11 тепло 1026.3 1019.0
СВ 2-3
{4}
50 км 1/0
[Ci fib]
+10.7 +5.3 69 +10 +10 тепло 1026.6 1019.3
СВ 3 50 км ясно +10.4 +5.1 70 +8 +8 по сезону 1026.8 1019.5
В 3-4
{4}
40 км 1/0
[Ci fib]
+8.9 +4.8 75 +7 +7 по сезону 1026.9 1019.6
СВ 3-3
{3}
50 км 1/0
[Ci fib]
+9.7 +5.1 73 +8 +8 по сезону 1026.8 1019.5
В 1 40 км 1/0
[Ci fib]
+8.5 +4.8 78 +8 +8 прохладно 1026.8 1019.5
штиль 0-1
{1}
40 км 1/0
[Ac trans Ci fib]
+7.0 +4.4 84 +6 +6 прохладно 1026.9 1019.5
В 2-3
{3}
45 км 3/0
[Ac trans]
+9.6 +5.3 75 +8 +9 по сезону 1027.0 1019.7
В 3 45 км 4/0
[Ac trans]
+12.2 +5.7 64 +11 +13 по сезону 1027.1 1019.8 +6.7 +19.5
В 3 45 км 4/0
[Ac As]
+15.7 +4.0 46 +15 +21 тепло 1027.1 1019.9
В 4-7
{7}
45 км 4/0
[Ac trans]
+14.3 +5.0 54 +13 +16 тепло 1027.3 1020.1
СВ 2 45 км 4/1 2000 м
[Sc Ac trans Ci fib]
+16.7 +4.2 43 +17 +27 тепло 1026.6 1019.5
В 4-8
{8}
45 км 6/5 2000 м
[Sc Ac lent Ci fib]
+18.2 +2.3 35 +18 +23 тепло 1026.6 1019.5
В 5 50 км 5/5 1500 м
[Cu Sc Ac trans Ci fib]
+17.7 +2.9 37 +17 +22 тепло 1026.2 1019.1
В 5 60 км 6/6 2000 м
[Cu Sc Ac trans Ci sp]
+19.4 +3.2 34 +20 +23 тепло 1025.6 1018.5
В 5-7
{8}
55 км 8/8 2000 м
[Cu Sc Ac trans]
+20.3 +3.7 33 +21 +22 комфорт 1024.2 1017.2
СВ 4-6
{9}
55 км 6/6 2000 м
[Cu med, cong Ac trans Ci sp]
+19.2 +3.9 36 +20 +24 тепло 1024.7 1017.6
СВ 6 55 км 9/9 2000 м
[Cu Sc]
+19.2 +4.1 37 +19 +19 тепло 1024.0 1016.9
СВ 5 55 км 9/9 2000 м
[Cu Sc]
+18.4 +4.4 40 +18 +19 по сезону 1023.8 1016.7
СВ 4 55 км 9/5 2000 м
[Cu Sc Ac As]
+18.3 +4.4 40 +18 +19 по сезону 1023.5 1016.4
СВ 5 55 км 8/1 1500 м
[Cu med, cong Ac As Ci fib]
+17.7 +4.4 41 +17 +18 по сезону 1023.6 1016.5 +12.2 +21.1
В 7 50 км 8/1 1500 м
[Cu hum Ac As Ci fib]
+16.8 +4.4 44 +16 +16 по сезону 1024.0 1016.9
СВ 2 55 км 8/1 1500 м
[Cu hum Ac As Ci fib]
+16.6 +5.4 47 +17 +17 по сезону 1023.5 1016.4
В 4 50 км 6/0
[Ac As Ci fib]
+15.3 +4.2 47 +14 +14 по сезону 1024.3 1017.1
СВ 2 50 км 4/0
[Ac trans Ci fib]
+12.2 +4.4 59 +11 +11 по сезону 1024.4 1017.2
СВ 3 50 км 4/0
[Ac trans Ci fib]
+10.8 +4.5 65 +9 +9 прохладно 1024.7 1017.4
СВ 3 50 км 3/0
[Ci fib]
+9.5 +4.6 71 +7 +7 прохладно 1024.9 1017.6
СВ 2-4
{4}
50 км 6/0
[Ci fib]
+8.5 +4.3 75 +7 +7 по сезону 1024.8 1017.5
СВ 3-3
{5}
50 км 6/0
[Ci fib]
+8.6 +4.3 74 +6 +6 по сезону 1025.0 1017.7
СВ 2 50 км 8/0
[Ci fib]
+8.6 +4.1 73 +7 +7 прохладно 1024.6 1017.3
СВ 3 50 км 9/0
[Cs]
+8.4 +4.3 75 +6 +6 прохладно 1024.6 1017.3
СВ 3 50 км 10/0
[Ac lent Cs]
+9.2 +4.7 73 +7 +8 по сезону 1024.7 1017.4
СВ 3 55 км 10/0
[Ac As Cs]
+10.9 +6.0 72 +9 +11 прохладно 1024.9 1017.6 +8.1 +17.8
СВ 4 60 км 9/1 1050 м
[Cu hum Ac lent Cs]
+15.3 +6.2 55 +14 +18 тепло 1024.7 1017.5
СВ 3 60 км 9/0
[Ac lent Cs]
+13.1 +6.3 63 +12 +15 тепло 1024.9 1017.7
СВ 6 60 км 9/3 1350 м
[Cu hum Ac As]
+15.7 +6.3 54 +14 +16 по сезону 1024.6 1017.5
С 5 50 км 8/5 1410 м
[Cu Sc Ac lent Ci fib]
+16.9 +7.3 53 +16 +19 по сезону 1024.1 1017.0
СВ 5-8
{8}
50 км 8/6 1440 м
[Cu med, cong Ac lent Ci fib]
+17.9 +7.5 51 +18 +20 тепло 1024.0 1016.9
СВ 5 50 км 8/5 1500 м
[Cu hum Ac trans Ci fib]
+18.6 +6.8 46 +19 +22 по сезону 1023.6 1016.5
СВ 4 50 км 5/3 1500 м
[Cu hum Ac trans Ci fib]
+20.8 +7.2 41 +22 +27 комфорт 1022.9 1015.9
СВ 5 50 км 6/4 1500 м
[Cu hum Ac trans Ci fib]
+19.4 +7.1 45 +20 +24 по сезону 1023.3 1016.3
СВ 4 50 км 5/3 1500 м
[Cu hum Ci fib]
+21.1 +7.0 40 +22 +26 комфорт 1022.6 1015.6
В 5 50 км 4/1 1500 м
[Cu hum Ci fib]
+21.1 +7.1 40 +22 +24 комфорт 1022.4 1015.4
СВ 4 50 км 4/1 1500 м
[Cu hum Ci fib]
+21.4 +7.3 40 +22 +24 комфорт 1022.3 1015.3
СВ 6 50 км 5/1 1500 м
[Cu hum Ci fib]
+20.6 +8.1 45 +22 +22 комфорт 1022.4 1015.4 +10.9 +21.8
СВ 2-3
{4}
50 км 5/0
[Ci fib]
+15.6 +7.8 60 +16 +16 по сезону 1023.5 1016.4
С 3-5
{7}
50 км 5/0
[Ci fib]
+18.7 +8.4 51 +19 +19 тепло 1022.9 1015.8
СВ 5 50 км 5/0
[Ci fib]
+15.0 +6.7 58 +14 +14 по сезону 1024.2 1017.0
СВ 5-7
{9}
50 км 5/0
[Ci fib]
+14.6 +5.6 55 +13 +13 по сезону 1024.6 1017.4
СВ 4-5
{8}
50 км 6/0
[Ci fib]
+11.9 +4.5 60 +10 +10 по сезону 1024.9 1017.7
СВ 3 50 км 5/0
[Ci fib]
+10.5 +3.6 62 +9 +9 по сезону 1024.9 1017.6
СВ 2-3
{3}
45 км 6/0
[Ci fib]
+7.7 +3.1 73 +6 +6 прохладно 1024.9 1017.5
СВ 2-3
{4}
50 км 8/0
[Ci fib]
+9.4 +3.4 66 +8 +8 по сезону 1024.9 1017.6
СВ 1 50 км 5/0
[Ci fib]
+7.4 +3.2 75 +7 +7 прохладно 1024.8 1017.4
СВ 1-2
{3}
50 км 4/0
[Ci fib]
+7.1 +2.9 75 +6 +7 прохладно 1025.1 1017.7
СВ 3-4
{4}
50 км 1/0
[Ci fib]
+9.1 +4.6 73 +7 +8 по сезону 1025.2 1017.9
В 4 50 км 1/0
[Ci fib]
+11.2 +5.8 69 +9 +11 прохладно 1025.5 1018.2 +6.7 +20.6
В 3-5
{5}
50 км ясно +15.2 +7.6 60 +15 +23 тепло 1025.5 1018.3
В 3-4
{5}
50 км 1/0
[Ci fib]
+13.5 +7.2 66 +12 +18 тепло 1025.5 1018.3
В 4 50 км ясно +17.8 +8.4 54 +18 +26 тепло 1025.3 1018.2
СВ 4-6
{8}
50 км ясно +19.1 +8.3 50 +20 +30 тепло 1024.9 1017.8
В 6-8
{8}
50 км 1/0
[Ci fib]
+21.1 +6.9 40 +22 +28 комфорт 1024.3 1017.3
В 5 50 км 1/0
[Ci fib]
+21.9 +7.0 38 +23 +31 комфорт 1023.9 1016.9
В 6-10
{10}
50 км 1/0
[Ci fib]
+23.5 +6.9 34 +24 +28 комфорт 1022.8 1015.9
В 5-9
{10}
50 км 1/0
[Ci fib]
+23.4 +7.9 37 +24 +32 комфорт 1023.4 1016.4
В 5 50 км 3/0
[Ci sp]
+24.1 +7.8 35 +24 +29 комфорт 1022.4 1015.5
В 5-8
{10}
50 км 1/0
[Ci fib]
+23.9 +6.8 33 +24 +27 комфорт 1022.0 1015.1
В 6-8
{8}
50 км 3/0
[Ci fib]
+24.1 +5.9 31 +24 +25 комфорт 1021.6 1014.7
В 5 50 км 3/0
[Ci sp]
+23.3 +5.0 30 +23 +24 комфорт 1021.4 1014.5 +11.4 +24.5
В 3-4
{4}
60 км 4/0
[Ci sp]
+18.3 +5.5 43 +19 +19 тепло 1021.9 1014.8
В 3-4
{7}
60 км 4/0
[Ci sp]
+20.5 +6.5 40 +22 +22 комфорт 1021.4 1014.4
СВ 3 60 км 4/0
[Ci sp]
+16.5 +6.1 50 +16 +16 тепло 1022.2 1015.1
В 4-6
{6}
60 км 4/0
[Ci sp]
+16.1 +7.1 55 +15 +15 тепло 1022.3 1015.2
В 2-3
{5}
60 км 4/0
[Ci fib]
+13.9 +7.0 63 +14 +14 тепло 1022.5 1015.3
В 2 60 км 1/0
[Ci fib]
+13.3 +6.9 65 +13 +13 тепло 1022.4 1015.2
СВ 1-2
{2}
60 км 1/0
[Ci fib]
+10.5 +6.8 78 +10 +10 по сезону 1022.1 1014.8
В 1-2
{2}
60 км 1/0
[Ci fib]
+12.1 +6.9 70 +12 +12 тепло 1022.3 1015.1
СВ 3 60 км 1/0
[Ci fib]
+9.8 +6.1 78 +8 +8 прохладно 1021.8 1014.5
СВ 3-3
{4}
60 км 1/0
[Ci fib]
+10.6 +6.3 75 +9 +9 по сезону 1021.7 1014.4
В 2-3
{3}
50 км 3/0
[Ci fib]
+13.4 +7.0 65 +13 +14 тепло 1021.6 1014.4
В 3 50 км 3/0
[Ci fib]
+15.6 +6.3 54 +15 +18 тепло 1021.3 1014.2 +9.6 +23.5
В 3-4
{6}
50 км 5/0
[Ci fib]
+20.0 +7.4 44 +21 +29 комфорт 1020.9 1013.9
ЮВ 3-5
{5}
50 км 4/0
[Ci fib]
+18.1 +6.6 47 +18 +23 тепло 1021.3 1014.2
ЮВ 4 50 км 5/0
[Ci sp]
+20.8 +6.0 38 +22 +30 комфорт 1020.3 1013.3
В 4-7
{7}
50 км 6/0
[Ci sp]
+21.8 +6.3 37 +23 +32 комфорт 1019.5 1012.5
ЮВ 3-5
{8}
50 км 6/0
[Ci sp]
+23.4 +7.3 36 +24 +37 комфорт 1018.7 1011.8
В 2 50 км 8/0
[Ci sp]
+24.5 +7.5 34 +25 +39 комфорт 1018.0 1011.1
ЮВ 3 45 км 8/1 2000 м
[Cu hum Ci sp]
+25.2 +7.1 31 +25 +33 комфорт 1016.0 1009.1
Ю 4-6
{7}
45 км 8/0
[Ci sp]
+24.2 +5.7 30 +24 +32 комфорт 1017.0 1010.1
ЮВ 3 45 км 8/1 2000 м
[Cu hum Ci sp]
+25.3 +7.8 33 +25 +31 комфорт 1015.1 1008.2
Ю 3 45 км 8/1 2000 м
[Cu hum Ci sp]
+25.6 +7.2 31 +26 +29 жарко 1014.2 1007.4
ЮЗ 2 45 км 8/1 2000 м
[Cu hum Ci sp]
+25.1 +7.1 32 +25 +27 комфорт 1013.4 1006.6
С 1 45 км 8/0
[Ci sp]
+25.0 +9.0 36 +26 +27 жарко 1012.8 1006.0 +15.7 +26.5
В 2-2
{3}
45 км 9/0
[Ci sp]
+19.7 +9.6 52 +21 +21 комфорт 1012.2 1005.2
В 2-2
{3}
45 км 9/0
[Ci sp]
+22.0 +10.1 47 +24 +24 комфорт 1012.4 1005.5
В 1 45 км 9/0
[Ci sp]
+17.4 +9.8 61 +18 +18 тепло 1011.9 1004.9
штиль 0-1
{2}
35 км 9/0
[Ci sp]
+15.8 +10.3 70 +16 +16 тепло 1011.2 1004.2
ЮЗ 1-1
{1}
35 км 9/0
[Ci sp]
+14.9 +10.3 74 +15 +15 тепло 1010.8 1003.7
В 3 30 км 9/0
[Ci sp]
+14.5 +10.3 76 +14 +14 тепло 1010.2 1003.1
В 2-2
{2}
40 км 9/0
[Ci sp]
+13.9 +9.6 75 +13 +13 тепло 1008.8 1001.7
СВ 2-3
{3}
35 км 9/0
[Ci sp]
+14.8 +9.8 72 +15 +15 тепло 1009.5 1002.4
СВ 2 40 км 9/0
[Ci sp]
+13.2 +9.6 79 +13 +13 по сезону 1008.1 1001.0
В 2 40 км 9/0
[Ac trans Ci sp]
+13.6 +9.8 78 +13 +13 тепло 1007.7 1000.6
В 2 40 км 9/1 600 м
[Cu hum Ac trans Ci sp]
+15.3 +10.7 74 +15 +16 тепло 1007.1 1000.1
ЮВ 3 40 км 9/1 1000 м
[Cu hum Ac trans Ci sp]
+18.4 +10.5 60 +19 +20 тепло 1006.7 999.8 +12.9 +25.2
ЮВ 3 40 км 9/1 1350 м
[Cu hum Ci sp]
+22.4 +9.6 44 +24 +30 комфорт 1005.8 998.9
ЮВ 3 40 км 9/1 1350 м
[Cu hum Ac trans Ci sp]
+20.7 +9.6 49 +23 +25 комфорт 1006.1 999.2
Ю 3 40 км 9/1 1500 м
[Cu hum Ci sp]
+23.9 +9.7 41 +25 +33 комфорт 1005.4 998.6
Ю 4 40 км 9/1 2000 м
[Cu hum Ac trans Ci sp]
+24.8 +10.3 40 +26 +31 жарко 1005.0 998.2
Ю 4 40 км 9/1 2000 м
[Cu hum Ac trans Ci sp]
+24.7 +9.3 38 +25 +31 комфорт 1004.4 997.6
Ю 5 40 км 9/3 1500 м
[Cu med, cong Ac trans Ci sp]
+25.4 +11.5 42 +27 +30 жарко 1004.0 997.2
ЮЗ 3 45 км 9/1 1500 м
[Cb cap Ac trans Ci fib]
+26.3 +9.4 34 +27 +32 жарко 1001.8 995.1
Ю 3 40 км 8/1 1500 м
[Cu med, cong Ac trans Ci sp]
+25.3 +7.7 33 +25 +32 комфорт 1002.8 996.0
Ю 3 45 км 8/3 1500 м
[Cb cap Ac trans Ci fib]
+26.9 +8.3 31 +27 +30 жарко 1001.3 994.6
З 3 45 км 9/6 1500 м
[Cb cap Ac trans Ci fib]
+26.6 +5.7 26 +26 +27 жарко 1000.8 994.1
В 7 45 км гроза без осадков 9/8 1500 м
[Cb cap Ac As Ci sp]
+22.2 +10.1 46 +24 +24 комфорт 1000.7 993.9
СВ 7 45 км в посл. час гроза {ливн. осадки} 9/4 1000 м
[Cb cap Ci fib]
+19.8 +10.4 55 +21 +21 комфорт 1001.6 994.7 +18.3 +27.4 0.0
В 5 45 км 9/1 2000 м
[Sc Ci sp]
+16.6 +12.2 75 +16 +16 по сезону 1001.8 994.8
В 7 45 км 9/1 1350 м
[Cb cap Ac trans Ci sp]
+18.6 +11.3 62 +18 +18 тепло 1002.0 995.1
В 4 45 км 9/3 2000 м
[Sc Ac trans Ci sp]
+16.3 +12.3 77 +16 +16 тепло 1001.1 994.1
ЮВ 4 45 км 10/3 2000 м
[Sc Ac trans]
+16.8 +12.3 75 +16 +16 тепло 1000.3 993.4
ЮВ 4-5
{7}
40 км 10/0
[Ac trans]
+17.2 +12.4 73 +17 +17 тепло 999.4 992.5
Ю 4 45 км 10/10 600 м
[Sc Cs]
+17.0 +11.8 71 +17 +17 тепло 998.8 991.9
Ю 3 40 км 10/0
[Ac trans Ci sp]
+16.1 +11.2 73 +16 +16 тепло 997.3 990.4
Ю 6-8
{8}
40 км 9/0
[Ci sp]
+16.5 +11.4 72 +15 +15 тепло 998.0 991.1
ЮВ 2 45 км 10/0
[Ac trans Ci sp]
+15.9 +11.5 75 +16 +16 тепло 996.8 989.9
СВ 3 40 км 9/0
[Ac trans Ci sp]
+13.6 +11.5 87 +12 +13 по сезону 996.5 989.5
В 3 40 км 9/3 1500 м
[Cu med, cong Ac cast Ci fib]
+14.5 +12.1 86 +14 +14 тепло 996.2 989.2
СВ 2 25 км слаб. ливневой дождь 9/4 300 м
[Cu med, cong Ac cast Ci sp]
+15.1 +13.2 88 +15 +16 тепло 995.5 988.6 +13.1 +19.8 0.3
С 1 35 км слаб. ливневой дождь 9/9 900 м
[Cu Sc]
+16.8 +13.0 78 +18 +19 тепло 994.9 988.0
ЮЗ 1 35 км в посл. час ливневой дождь 9/6 600 м
[Cu Sc Ac As]
+16.5 +13.7 84 +17 +19 тепло 995.6 988.7
З 2 10 км слаб. дождь 10/5 300 м
[Cb cap As op]
+14.7 +13.4 92 +14 +16 по сезону 995.5 988.5 2
З 4 6000 м дождь 10/6 240 м
[Cu med, cong As op]
+14.0 +13.1 94 +12 +13 прохладно 995.4 988.4
З 2 9000 м слаб. дождь 10/6 150 м
[Cu med, cong As op]
+14.1 +13.3 95 +14 +15 по сезону 994.9 987.9
З 1 12 км слаб. дождь 10/6 210 м
[Cu med, cong As op]
+14.4 +13.2 92 +15 +16 прохладно 994.5 987.5 7
Ю 3 15 км в посл. час дождь 10/6 240 м
[Cu med, cong Ac As]
+15.9 +14.1 89 +15 +17 прохладно 993.4 986.5
Ю 2 12 км слаб. дождь 10/6 210 м
[Cu med, cong As op]
+15.4 +14.1 92 +15 +16 прохладно 994.0 987.1
Ю 5 25 км {дождь} 10/5 300 м
[Cb calv Ac As]
+16.3 +13.8 85 +15 +16 прохладно 992.8 985.9 0.3
З 6 20 км в посл. час гроза {ливн. осадки} 10/8 420 м
[Cb cap Ac As]
+15.9 +13.6 86 +15 +15 прохладно 992.5 985.6
З 7 40 км 10/9 360 м
[Cu med, cong]
+14.7 +12.6 87 +13 +13 прохладно 993.0 986.1
З 6 30 км {гроза, ливн. осадки} 10/9 200 м
[Cu Sc]
+13.6 +12.0 90 +11 +11 холодно 993.3 986.3 +13.6 +16.9 0.1
З 4 30 км в посл. час дождь 10/8 240 м
[Cu Sc As op]
+12.4 +10.9 91 +10 +10 холодно 994.0 987.0
СЗ 5 30 км в посл. час дождь 10/9 300 м
[Cu Sc]
+13.1 +11.4 89 +11 +11 холодно 993.6 986.6
З 3 30 км {дождь} 10/8 360 м
[Cu Sc As op]
+11.9 +10.1 89 +10 +10 прохладно 994.1 987.1 0.0
З 3 30 км в посл. час дождь 10/4 900 м
[Cu Sc As op]
+11.8 +9.9 88 +10 +10 прохладно 994.2 987.2
СЗ 4 8000 м слаб. дождь 10/1 330 м
[Cu hum As op]
+10.9 +10.0 94 +8 +8 прохладно 994.3 987.3
СЗ 6 10 км слаб. дождь 10/4 200 м
[Cu hum As op]
+10.3 +9.5 95 +7 +7 прохладно 994.7 987.6 2
З 3 15 км слаб. дождь 10/4 330 м
[Cu Sc As op]
+9.3 +8.3 93 +7 +7 по сезону 995.2 988.1
З 3 15 км слаб. дождь 10/1 330 м
[Cu hum As op]
+9.9 +9.0 94 +8 +8 по сезону 994.9 987.8
З 3 15 км слаб. дождь 10/8 240 м
[Cu Sc As op]
+9.2 +8.4 95 +7 +7 прохладно 995.2 988.1 0.5
З 4 15 км в посл. час дождь 9/6 240 м
[Cu Sc As op]
+9.0 +8.2 95 +6 +6 прохладно 995.4 988.3
ЮЗ 5 18 км в посл. час дождь 9/9 240 м
[Cu Sc]
+9.5 +8.3 92 +6 +6 прохладно 995.7 988.6
ЮЗ 4 40 км в посл. час дождь 9/9 300 м
[Cu Sc]
+9.8 +8.0 89 +7 +7 холодно 996.2 989.1 +9.0 +13.6 2
З 6-10
{10}
50 км 6/5 720 м
[Cu Sc Ac trans Ci fib]
+11.4 +5.6 67 +9 +10 по сезону 995.9 988.8
З 5 50 км 9/9 450 м
[Cu Sc]
+10.4 +6.9 79 +7 +8 прохладно 996.0 988.9
ЮЗ 5 50 км 8/6 1000 м
[Cu med, cong Ac trans Ci fib]
+12.4 +5.3 62 +10 +12 холодно 995.5 988.5
Ю 7 50 км 8/6 1200 м
[Cu med, cong Ac trans Ci sp]
+14.2 +5.6 56 +12 +13 прохладно 995.2 988.2
Ю 5 50 км 8/5 1300 м
[Cu med, cong Ac lent Ci sp]
+15.4 +6.6 56 +14 +17 по сезону 994.3 987.4
Ю 5 50 км 8/6 1350 м
[Cu Sc Ac lent Ci sp]
+15.1 +5.5 53 +14 +16 холодно 993.5 986.6
Ю 10 45 км 9/6 1260 м
[Cu Sc Ac As]
+16.4 +6.4 52 +15 +15 прохладно 992.4 985.5
Ю 7-11
{12}
45 км в посл. час ливневой дождь 8/8 1410 м
[Cu med, cong]
+15.3 +6.3 55 +14 +14 холодно 992.8 985.9
Ю 9 45 км слаб. ливневой дождь 9/8 1140 м
[Cu med, cong Ac As]
+14.0 +7.2 64 +11 +12 холодно 992.2 985.2 0.0
Ю 7 30 км слаб. дождь 10/9 720 м
[Cu Sc]
+12.3 +8.8 79 +9 +10 очень
холодно
991.5 984.5
ЮЗ 4 >70 км слаб. ливневой дождь 9/9 360 м
[Cb cap]
+8.8 +7.5 92 +6 +6 очень
холодно
991.5 984.4
ЮЗ 5 25 км в посл. час ливневой дождь 8/4 300 м
[Cu Sc Ac trans Ci ing]
+10.2 +8.1 87 +7 +7 очень
холодно
991.7 984.7 +8.8 +17.0 2
З 7 20 км в посл. час ливневой дождь 9/5 540 м
[Cu Sc Ac trans Ci sp]
+9.5 +7.4 87 +6 +6 очень
холодно
993.5 986.4
ЮЗ 5 18 км слаб. ливневой дождь 9/8 600 м
[Cu Sc Ac trans Ci ing]
+10.1 +7.3 83 +7 +7 очень
холодно
992.3 985.2
З 5 20 км в посл. час ливневой дождь 8/4 540 м
[Cu Sc Ac trans Ci fib]
+9.2 +6.9 86 +6 +6 очень
холодно
994.9 987.8 0.0
Местоположение метеостанции Ганновер (Германия): широта 52.47 долгота 9.70 высота над уровнем моря 55 м.
В архиве по умолчанию представлена погода в Ганновере за последнюю неделю. Архивные данные за месяц целиком и за предыдущие месяцы, начиная с января 2011 года, Вы можете получить, выбрав интересующий диапазон дат из раскрывающегося списка и нажав кнопку "Найти!".
*Определитесь, кто Вы:
Внимание! Время в таблицах - всемирное. Для получения местного времени необходимо прибавить поправку, которая равна 1 ч.
Смотрите также архив погоды в соседних городах и на ближайших метеорологических станциях:
Партнеры нашего сайта:      
Пояснения к столбцам:
  • Ветер - указаны скорость ветра в м/с - средняя за 10 мин, порывы в срок и между сроками (в фигурных скобках) и направление, откуда дует ветер: С - северный,
  • СВ - северо-восточный, В - восточный, ЮВ - юго-восточный, Ю - южный, ЮЗ - юго-западный, З - западный, СЗ - северо-западный.
  • Видимость - горизонтальная дальность видимости в метрах или километрах. При видимости от 1 до 10 км при отсутствии осадков обычно наблюдается дымка, при ухудшении видимости до 1 км и менее - туман. В сухую погоду видимость может ухудшаться дымом, пылью или мглою.
  • Явления - указаны атмосферные явления, наблюдавшиеся в срок или в последний час перед сроком; фигурными скобками обозначены явления, наблюдавшиеся между сроками (за 1-3 часа до срока); квадратными скобками обозначены град или гололедные отложения с указанием их диаметра в мм.
  • Облачность - указаны через наклонную черту общая и нижняя облачность в баллах и высота нижней границы облаков в метрах; квадратными скобками обозначены формы облаков: Ci - перистые, Cs - перисто-слоистые, Cc - перисто-кучевые, Ac - высококучевые, As - высокослоистые, Sc - слоисто-кучевые, Ns - слоисто-дождевые, Cu - кучевые, Cb - кучево-дождевые. Подробнее классификацию облаков см. в Атласе облаков (PDF).
  • T - Температура воздуха - температура, измеренная на высоте 2 м над землей.
  • Td - Температура точки росы - температура, при понижении до которой содержащийся в воздухе водяной пар достигнет насыщения.
  • f - Относительная влажность воздуха - влажноcть воздуха, измеренная на высоте 2 м над землей.
  • Te - Эффективная температура - температура, которую ощущает одетый по сезону человек в тени. Характеристика душности погоды. При расчете учитывается влияние влажности воздуха и скорости ветра на теплоощущения человека.
  • Tes - Эффективная температура на солнце - температура, которую ощущает человек, с поправкой на солнечный нагрев. Характеристика знойности погоды. Зависит от высоты солнца над горизонтом, облачности и скорости ветра. Ночью, в пасмурную погоду, а также при ветре 12 м/с и более поправка равна нулю.
  • P - Атмосферное давление - приведенное к уровню моря атмосферное давление.
  • Po - Атмосферное давление - измеренное на уровне метеостанции атмосферное давление.
  • Tmin - Минимальная температура - минимум температуры воздуха на высоте 2 м над землей.
  • Tmax - Максимальная температура - максимум температуры воздуха на высоте 2 м над землей.
  • R - Количество осадков - Количество выпавших осадков за период времени, мм. При наведении курсора мыши на число - период времени, за который выпало указанное количество осадков.
  • R24 - Количество осадков - Количество выпавших осадков за 24 часа, мм.
  • S - Снежный покров - Высота снежного покрова, см. При наведении курсора мыши на число - состояние снежного покрова и степень покрытия местности в баллах.